Regional Weather Roundup
Issued by NWS Newport/Morehead, NC

Current Version | Previous Version | Text Only | Print | Product List | Glossary On
Versions: 1 2 3 4 5 6 7 8 9 10 11 12 13 14 15 16 17 18 19 20 21 22 23 24 25 26 27 28 29 30 31 32 33 34 35 36 37 38 39 40 41 42 43 44 45 46 47 48 49 50
000 ASUS42 KMHX 240125 RWRMHX WEATHER ROUNDUP FOR EASTERN NORTH CAROLINA NATIONAL WEATHER SERVICE NEWPORT/MOREHEAD CITY NC 900 PM EDT FRI JUN 23 2017 NOTE: "FAIR" INDICATES FEW OR NO CLOUDS BELOW 12,000 FEET WITH NO SIGNIFICANT WEATHER AND/OR OBSTRUCTIONS TO VISIBILITY NCZ015>017-031-032-045>047-102-103-240200- NORTH COAST CITY SKY/WX TMP DP RH WIND PRES REMARKS EDENTON CLEAR 84 77 80 S14G22 29.87R ELIZABETH CITY CLEAR 83 79 88 S14G22 29.85R KITTY HAWK CLEAR 80 73 79 SW9G18 29.87S MANTEO CLEAR 81 74 80 SW22G30 29.88S $$ NCZ045>047-081-094-103-104-240200- CENTRAL COAST CITY SKY/WX TMP DP RH WIND PRES REMARKS FRISCO CLEAR 80 75 84 SW15G24 29.93S $$ NCZ095-097-098-100-101-240200- SOUTHERN COAST CITY SKY/WX TMP DP RH WIND PRES REMARKS BEAUFORT PTCLDY 81 77 88 SW18G28 29.95R CEDAR ISLAND NOT AVBL JACKSONVILLE CLEAR 80 74 81 S10 29.92S PINEY ISLAND CLEAR N/A N/A N/A S16G25 29.93R WILMINGTON CLEAR 80 72 76 SW14G22 29.95R $$ NCZ011>013-027>030-043-044-078>080-089-090>093-098-240200- COASTAL PLAIN CITY SKY/WX TMP DP RH WIND PRES REMARKS AHOSKIE N/A 80 73 78 S5 29.85S CLINTON CLEAR 82 78 89 S8 29.90R ELIZABETHTOWN NOT AVBL GOLDSBORO CLEAR 84 81 90 S9 29.87R GREENVILLE PTCLDY 84 77 79 SW16 29.90R HAVELOCK CLEAR 80 72 76 S17G23 29.93S KENANSVILLE PTCLDY 81 75 83 S6 29.91R KINSTON MOCLDY 84 57 39 S13 29.90R NEW BERN CLEAR 80 74 81 SW13 29.92S RICHLANDS CLEAR 81 72 74 S13 29.92S ROCKY MOUNT CLEAR 83 73 72 S9 29.86R WASHINGTON CLEAR N/A N/A N/A S10 29.89R WHITEVILLE CLEAR 81 76 83 S8 29.93R $$ AMZ130-135-150-152-154-156-158-170-250-252-270-ANZ085-086-088-633-658-670-240200- MARINE OBSERVATIONS STATION/POSITION TIME TEMP WIND PRES WAVE SWELL AIR SEA DIR/SP/G HT/PER HT/PER (UTC) (F) (DEG/KT/KT) (MB) (FT/S) (FT/S) CHESAPEAKE LIGHT NOT AVBL 64 E VA BEACH 0050 75 72 210/ 21/ 25 1010.7 5/ 5 2/ 8 DUCK 0100 82 62 200/ 19/ 26 1010.7 2 E DUCK NOT AVBL OREGON INLET 0100 80 83 200/ 23/ 28 1012.1 13E OREGON INLT 0048 72 N/A 5/ 5 2/ 8 HATTERAS CG 0100 79 80 220/ 13/ 20 1013.5 DIAMOND BUOY 0050 81 80 220/ 21/ 25 1013.5 6/ 5 2/ 9 CAPE LOOKOUT 0100 80 210/ 14/ 20 1013.9 BEAUFORT LAB 0100 80 78 210/ 13/ 19 1013.4 30 SE NEW RVR IN 0108 80 81 220/ 17/ 23 1014.6 30 SE NEW RVR IN 0043 81 N/A 5/ 5 27 SE WRIGHTSVLE 0108 79 80 210/ 17/ 23 1014.7 5 SE WRIGHTSVLE 0108 80 79 200/ 12/ 21 1014.4 225 S CAPE HAT 0050 81 81 190/ 14/ 16 1018.3 4/ 9 3/ 9 41 SE CHARLESTON 0110 81 81 200/ 17/ 21 1015.3 $$

USA.gov is the U.S. government's official web portal to all federal, state and local government web resources and services.